Regional Weather Roundup
Issued by NWS

Home | Current Version | Previous Version | Graphics & Text | Print | Product List | Glossary On
Versions: 1 2 3 4 5 6 7 8 9 10 11 12 13 14 15 16 17 18 19 20 21 22 23 24 25 26 27 28 29 30 31 32 33 34 35 36 37 38 39 40 41 42 43 44 45 46 47 48 49 50
000
ASUS43 KBIS 261810
RWRND

NORTH DAKOTA REGIONAL WEATHER ROUNDUP
NATIONAL WEATHER SERVICE BISMARCK ND
100 PM CDT THU MAY 26 2016

NOTE: "FAIR" INDICATES FEW OR NO CLOUDS BELOW 12,000 FEET WITH NO
SIGNIFICANT WEATHER AND/OR OBSTRUCTIONS TO VISIBILITY.


NDZ001>003-009>011-017-261900-
NORTHWEST NORTH DAKOTA

CITY           SKY/WX    TMP DP  RH WIND       PRES   REMARKS
WILLISTON      MOSUNNY   61  49  64 W3        29.81F
6HR MIN TEMP:  48; 6HR MAX TEMP:  62;

MINOT          CLOUDY    62  55  77 VRB6      29.79F
MINOT AFB      CLOUDY    61  55  81 NE3       29.78F
$$

NDZ018>021-031>035-040>046-261900-
SOUTHWEST NORTH DAKOTA

CITY           SKY/WX    TMP DP  RH WIND       PRES   REMARKS
BISMARCK       SUNNY     71  48  43 W9        29.80F
6HR MIN TEMP:  47; 6HR MAX TEMP:  71;

DICKINSON      PTSUNNY   60  41  49 SW14      29.81S
GARRISON         N/A     66  51  58 W9        29.79F
6HR MIN TEMP:  50; 6HR MAX TEMP:  66;

HETTINGER ARPT PTSUNNY   66  41  40 W9G18     29.85F
$$

NDZ004>008-012>016-024-026-027-054-261900-
NORTHEAST NORTH DAKOTA

CITY           SKY/WX    TMP DP  RH WIND       PRES   REMARKS
GRAND FORKS    CLOUDY    66  56  70 W14       29.73S
GRND FRKS AFB  CLOUDY    64  55  72 W13       29.74S
DEVILS LAKE    CLOUDY    61  54  77 W13       29.77S
$$

NDZ022-023-025-028>030-036>039-047>053-261900-
SOUTHEAST NORTH DAKOTA

CITY           SKY/WX    TMP DP  RH WIND       PRES   REMARKS
FARGO          PTSUNNY   68  57  68 SW16      29.78S
6HR MIN TEMP:  56; 6HR MAX TEMP:  69;

JAMESTOWN      SUNNY     69  53  56 W17G25    29.79S
$$




USA.gov is the U.S. government's official web portal to all federal, state and local government web resources and services.